| time (UTC) | temp C | wind direction | speed KPH | gust KPH | rain 1hr cm | rain 24hr cm | rain mn cm | humidity % | barometer mb |
| 20260503232136 | 15 | 0.0 | 0.0 | 0.00 | 0.00 | 0.00 | 65 | 948.7 | |
| 20260503231836 | 15 | 0.0 | 0.0 | 0.00 | 0.00 | 0.00 | 65 | 948.7 | |
| 20260503231536 | 15 | 0.0 | 0.0 | 0.00 | 0.00 | 0.00 | 65 | 948.7 | |
| 20260503231235 | 15 | 0.0 | 0.0 | 0.00 | 0.00 | 0.00 | 65 | 948.7 | |
| 20260503230936 | 15 | 0.0 | 0.0 | 0.00 | 0.00 | 0.00 | 65 | 948.7 | |
| 20260503230635 | 15 | 0.0 | 0.0 | 0.00 | 0.00 | 0.00 | 65 | 948.7 | |
| 20260503230336 | 15 | 0.0 | 0.0 | 0.00 | 0.00 | 0.00 | 65 | 948.7 | |
| 20260503225735 | 15 | 0.0 | 0.0 | 0.00 | 0.00 | 0.00 | 67 | 948.0 | |
| 20260503225436 | 15 | 0.0 | 0.0 | 0.00 | 0.00 | 0.00 | 63 | 948.6 | |
| 20260503225136 | 15 | 0.0 | 0.0 | 0.00 | 0.00 | 0.00 | 63 | 948.6 | |
| 20260503224836 | 15 | 0.0 | 0.0 | 0.00 | 0.00 | 0.00 | 63 | 948.6 | |
| 20260503224536 | 15 | 0.0 | 0.0 | 0.00 | 0.00 | 0.00 | 63 | 948.6 | |
| 20260503223936 | 15 | 0.0 | 0.0 | 0.00 | 0.00 | 0.00 | 63 | 948.6 | |
| 20260503223036 | 15 | 0.0 | 0.0 | 0.00 | 0.00 | 0.00 | 63 | 948.6 | |
| 20260503222735 | 15 | 0.0 | 0.0 | 0.00 | 0.00 | 0.00 | 63 | 948.6 | |
| 20260503222436 | 15 | 0.0 | 0.0 | 0.00 | 0.00 | 0.00 | 63 | 948.6 | |
| 20260503222136 | 15 | 0.0 | 0.0 | 0.00 | 0.00 | 0.00 | 63 | 948.6 | |
| 20260503221836 | 15 | 0.0 | 0.0 | 0.00 | 0.00 | 0.00 | 63 | 948.6 | |
| 20260503221536 | 15 | 0.0 | 0.0 | 0.00 | 0.00 | 0.00 | 63 | 948.6 | |
| 20260503220935 | 15 | 0.0 | 0.0 | 0.00 | 0.00 | 0.00 | 63 | 948.6 | |
| 20260503220635 | 15 | 0.0 | 0.0 | 0.00 | 0.00 | 0.00 | 61 | 948.8 | |
| 20260503220336 | 15 | 0.0 | 0.0 | 0.00 | 0.00 | 0.00 | 61 | 948.8 | |
| 20260503220036 | 15 | 0.0 | 0.0 | 0.00 | 0.00 | 0.00 | 61 | 948.8 | |
| 20260503215735 | 15 | 0.0 | 0.0 | 0.00 | 0.00 | 0.00 | 61 | 948.8 | |
| 20260503215436 | 15 | 0.0 | 0.0 | 0.00 | 0.00 | 0.00 | 61 | 948.8 | |
| 20260503215136 | 15 | 0.0 | 0.0 | 0.00 | 0.00 | 0.00 | 61 | 948.8 | |
| 20260503214835 | 15 | 0.0 | 0.0 | 0.00 | 0.00 | 0.00 | 61 | 948.8 | |
| 20260503214536 | 15 | 0.0 | 0.0 | 0.00 | 0.00 | 0.00 | 61 | 948.8 | |
| 20260503214235 | 15 | 0.0 | 0.0 | 0.00 | 0.00 | 0.00 | 61 | 948.8 | |
| 20260503213936 | 15 | 0.0 | 0.0 | 0.00 | 0.00 | 0.00 | 61 | 948.8 | |
| 20260503213636 | 15 | 0.0 | 0.0 | 0.00 | 0.00 | 0.00 | 61 | 948.8 | |
| 20260503213336 | 15 | 0.0 | 0.0 | 0.00 | 0.00 | 0.00 | 61 | 948.8 | |
| 20260503213036 | 15 | 0.0 | 0.0 | 0.00 | 0.00 | 0.00 | 61 | 948.8 | |
| 20260503212736 | 15 | 0.0 | 0.0 | 0.00 | 0.00 | 0.00 | 61 | 948.8 | |
| 20260503212435 | 15 | 0.0 | 0.0 | 0.00 | 0.00 | 0.00 | 61 | 948.8 | |
| 20260503212135 | 15 | 0.0 | 0.0 | 0.00 | 0.00 | 0.00 | 61 | 948.8 | |
| 20260503211536 | 15 | 0.0 | 0.0 | 0.00 | 0.00 | 0.00 | 61 | 948.8 | |
| 20260503210935 | 15 | 0.0 | 0.0 | 0.00 | 0.00 | 0.00 | 61 | 948.0 | |
| 20260503210336 | 15 | 0.0 | 0.0 | 0.00 | 0.00 | 0.00 | 59 | 948.0 | |
| 20260503210036 | 15 | 0.0 | 0.0 | 0.00 | 0.00 | 0.00 | 59 | 948.0 | |
| 20260503205736 | 15 | 0.0 | 0.0 | 0.00 | 0.00 | 0.00 | 59 | 948.0 | |
| 20260503205436 | 15 | 0.0 | 0.0 | 0.00 | 0.00 | 0.00 | 59 | 948.0 | |
| 20260503205135 | 15 | 0.0 | 0.0 | 0.00 | 0.00 | 0.00 | 59 | 948.0 | |
| 20260503204836 | 16 | 0.0 | 0.0 | 0.00 | 0.00 | 0.00 | 60 | 948.0 | |
| 20260503204535 | 16 | 0.0 | 0.0 | 0.00 | 0.00 | 0.00 | 60 | 948.0 | |
| 20260503204236 | 16 | 0.0 | 0.0 | 0.00 | 0.00 | 0.00 | 60 | 948.0 | |
| 20260503203936 | 16 | 0.0 | 0.0 | 0.00 | 0.00 | 0.00 | 60 | 948.0 | |
| 20260503203636 | 16 | 0.0 | 0.0 | 0.00 | 0.00 | 0.00 | 60 | 948.0 | |
| 20260503203335 | 16 | 0.0 | 0.0 | 0.00 | 0.00 | 0.00 | 60 | 948.0 | |
| 20260503203036 | 16 | 0.0 | 0.0 | 0.00 | 0.00 | 0.00 | 60 | 948.0 | |
| 20260503202736 | 16 | 0.0 | 0.0 | 0.00 | 0.00 | 0.00 | 60 | 948.0 | |
| 20260503202436 | 16 | 0.0 | 0.0 | 0.00 | 0.00 | 0.00 | 60 | 948.0 | |
| 20260503202135 | 16 | 0.0 | 0.0 | 0.00 | 0.00 | 0.00 | 60 | 948.0 | |
| 20260503201835 | 16 | 0.0 | 0.0 | 0.00 | 0.00 | 0.00 | 60 | 947.0 | |
| 20260503201536 | 16 | 0.0 | 0.0 | 0.00 | 0.00 | 0.00 | 60 | 947.0 | |
| 20260503201236 | 16 | 0.0 | 0.0 | 0.00 | 0.00 | 0.00 | 60 | 947.0 | |
| 20260503200936 | 16 | 0.0 | 0.0 | 0.00 | 0.00 | 0.00 | 60 | 947.0 | |
| 20260503200636 | 16 | 0.0 | 0.0 | 0.00 | 0.00 | 0.00 | 62 | 947.0 | |
| 20260503200036 | 16 | 0.0 | 0.0 | 0.00 | 0.00 | 0.00 | 62 | 947.0 | |
| 20260503195436 | 15 | 0.0 | 0.0 | 0.00 | 0.00 | 0.00 | 58 | 947.0 | |
| 20260503195136 | 15 | 0.0 | 0.0 | 0.00 | 0.00 | 0.00 | 58 | 947.0 | |
| 20260503194835 | 15 | 0.0 | 0.0 | 0.00 | 0.00 | 0.00 | 58 | 947.0 | |
| 20260503194536 | 15 | 0.0 | 0.0 | 0.00 | 0.00 | 0.00 | 58 | 947.0 | |
| 20260503194236 | 15 | 0.0 | 0.0 | 0.00 | 0.00 | 0.00 | 58 | 947.0 | |
| 20260503193936 | 15 | 0.0 | 0.0 | 0.00 | 0.00 | 0.00 | 58 | 947.0 | |
| 20260503193636 | 15 | 0.0 | 0.0 | 0.00 | 0.00 | 0.00 | 58 | 947.0 | |
| 20260503193336 | 15 | 0.0 | 0.0 | 0.00 | 0.00 | 0.00 | 58 | 947.0 | |
| 20260503193036 | 16 | 0.0 | 0.0 | 0.00 | 0.00 | 0.00 | 57 | 947.0 | |
| 20260503192736 | 16 | 0.0 | 0.0 | 0.00 | 0.00 | 0.00 | 57 | 947.0 | |
| 20260503192436 | 16 | 0.0 | 0.0 | 0.00 | 0.00 | 0.00 | 57 | 947.0 | |
| 20260503192136 | 16 | 0.0 | 0.0 | 0.00 | 0.00 | 0.00 | 57 | 947.0 | |
| 20260503191835 | 16 | 0.0 | 0.0 | 0.00 | 0.00 | 0.00 | 57 | 947.0 | |
| 20260503191236 | 16 | 0.0 | 0.0 | 0.00 | 0.00 | 0.00 | 57 | 947.0 | |
| 20260503190935 | 16 | 0.0 | 0.0 | 0.00 | 0.00 | 0.00 | 57 | 947.0 | |
| 20260503190636 | 16 | 0.0 | 0.0 | 0.00 | 0.00 | 0.00 | 57 | 947.0 | |
| 20260503190336 | 16 | 0.0 | 0.0 | 0.00 | 0.00 | 0.00 | 56 | 946.0 | |
| 20260503190036 | 16 | 0.0 | 0.0 | 0.00 | 0.00 | 0.00 | 56 | 946.9 | |
| 20260503185735 | 17 | 0.0 | 0.0 | 0.00 | 0.00 | 0.00 | 55 | 946.0 | |
| 20260503185436 | 17 | 0.0 | 0.0 | 0.00 | 0.00 | 0.00 | 51 | 946.0 | |
| 20260503185135 | 17 | 0.0 | 0.0 | 0.00 | 0.00 | 0.00 | 51 | 946.0 | |
| 20260503184836 | 17 | 0.0 | 0.0 | 0.00 | 0.00 | 0.00 | 51 | 946.0 | |
| 20260503184536 | 17 | 0.0 | 0.0 | 0.00 | 0.00 | 0.00 | 50 | 946.0 | |
| 20260503184235 | 17 | 0.0 | 0.0 | 0.00 | 0.00 | 0.00 | 50 | 946.0 | |
| 20260503183336 | 18 | 0.0 | 0.0 | 0.00 | 0.00 | 0.00 | 48 | 946.0 | |
| 20260503183036 | 18 | 0.0 | 0.0 | 0.00 | 0.00 | 0.00 | 48 | 946.0 | |
| 20260503182736 | 18 | 0.0 | 0.0 | 0.00 | 0.00 | 0.00 | 48 | 946.0 | |
| 20260503182436 | 18 | 0.0 | 0.0 | 0.00 | 0.00 | 0.00 | 48 | 946.0 | |
| 20260503182136 | 18 | 0.0 | 0.0 | 0.00 | 0.00 | 0.00 | 46 | 946.0 | |
| 20260503181536 | 18 | 0.0 | 0.0 | 0.00 | 0.00 | 0.00 | 46 | 946.0 | |
| 20260503181236 | 18 | 0.0 | 0.0 | 0.00 | 0.00 | 0.00 | 46 | 946.0 | |
| 20260503180935 | 18 | 0.0 | 0.0 | 0.00 | 0.00 | 0.00 | 46 | 946.0 | |
| 20260503180636 | 18 | 0.0 | 0.0 | 0.00 | 0.00 | 0.00 | 46 | 946.0 | |
| 20260503180036 | 18 | 0.0 | 0.0 | 0.00 | 0.00 | 0.00 | 46 | 946.0 | |
| 20260503175736 | 18 | 0.0 | 0.0 | 0.00 | 0.00 | 0.00 | 46 | 946.0 | |
| 20260503175436 | 18 | 0.0 | 0.0 | 0.00 | 0.00 | 0.00 | 46 | 946.0 | |
| 20260503175136 | 19 | 0.0 | 0.0 | 0.00 | 0.00 | 0.00 | 48 | 946.0 | |
| 20260503174835 | 19 | 0.0 | 0.0 | 0.00 | 0.00 | 0.00 | 48 | 946.0 | |
| 20260503174536 | 19 | 0.0 | 0.0 | 0.00 | 0.00 | 0.00 | 48 | 946.0 | |
| 20260503173936 | 19 | 0.0 | 0.0 | 0.00 | 0.00 | 0.00 | 48 | 946.0 | |
| 20260503173636 | 19 | 0.0 | 0.0 | 0.00 | 0.00 | 0.00 | 48 | 946.0 | |
| 20260503173336 | 19 | 0.0 | 0.0 | 0.00 | 0.00 | 0.00 | 48 | 946.0 | |
| 20260503173036 | 19 | 0.0 | 0.0 | 0.00 | 0.00 | 0.00 | 48 | 946.0 | |
| 20260503172736 | 19 | 0.0 | 0.0 | 0.00 | 0.00 | 0.00 | 48 | 946.0 | |
| 20260503172435 | 19 | 0.0 | 0.0 | 0.00 | 0.00 | 0.00 | 48 | 946.0 | |
| 20260503172135 | 19 | 0.0 | 0.0 | 0.00 | 0.00 | 0.00 | 48 | 946.0 | |
| 20260503171836 | 19 | 0.0 | 0.0 | 0.00 | 0.00 | 0.00 | 48 | 946.0 | |
| 20260503171535 | 19 | 0.0 | 0.0 | 0.00 | 0.00 | 0.00 | 48 | 946.0 | |
| 20260503171236 | 18 | 0.0 | 0.0 | 0.00 | 0.00 | 0.00 | 49 | 946.0 | |
| 20260503170936 | 18 | 0.0 | 0.0 | 0.00 | 0.00 | 0.00 | 49 | 946.0 | |
| 20260503170635 | 18 | 0.0 | 0.0 | 0.00 | 0.00 | 0.00 | 49 | 946.0 | |
| 20260503170335 | 18 | 0.0 | 0.0 | 0.00 | 0.00 | 0.00 | 50 | 945.0 | |
| 20260503150936 | 19 | 0.0 | 0.0 | 0.00 | 0.00 | 0.00 | 53 | 946.0 | |
| 20260503131236 | 18 | 0.0 | 0.0 | 0.00 | 0.00 | 0.00 | 60 | 947.0 | |
| 20260503130936 | 18 | 0.0 | 0.0 | 0.00 | 0.00 | 0.00 | 60 | 947.0 | |
| 20260503130636 | 18 | 0.0 | 0.0 | 0.00 | 0.00 | 0.00 | 56 | 947.0 | |
| 20260503130335 | 18 | 0.0 | 0.0 | 0.00 | 0.00 | 0.00 | 56 | 947.0 | |
| 20260503110636 | 20 | 0.0 | 0.0 | 0.00 | 0.00 | 0.00 | 54 | 948.0 | |
| 20260503110336 | 20 | 0.0 | 0.0 | 0.00 | 0.00 | 0.00 | 54 | 948.0 | |
| 20260503090335 | 20 | 0.0 | 0.0 | 0.00 | 0.00 | 0.00 | 54 | 948.0 | |
| 20260503081536 | 15 | 0.0 | 0.0 | 0.00 | 0.00 | 0.00 | 72 | 949.0 | |
| 20260503081235 | 15 | 0.0 | 0.0 | 0.00 | 0.00 | 0.00 | 74 | 949.0 | |
| 20260503080936 | 15 | 0.0 | 0.0 | 0.00 | 0.00 | 0.00 | 74 | 949.0 | |
| 20260503080636 | 15 | 0.0 | 0.0 | 0.00 | 0.00 | 0.00 | 74 | 949.0 | |
| 20260503080336 | 15 | 0.0 | 0.0 | 0.00 | 0.00 | 0.00 | 74 | 949.0 | |
| 20260503072736 | 14 | 0.0 | 0.0 | 0.00 | 0.00 | 0.00 | 77 | 949.0 | |
| 20260503072436 | 14 | 0.0 | 0.0 | 0.00 | 0.00 | 0.00 | 77 | 949.0 | |
| 20260503071836 | 13 | 0.0 | 0.0 | 0.00 | 0.00 | 0.00 | 77 | 949.0 | |
| 20260503071235 | 13 | 0.0 | 0.0 | 0.00 | 0.00 | 0.00 | 77 | 949.0 | |
| 20260503070936 | 13 | 0.0 | 0.0 | 0.00 | 0.00 | 0.00 | 77 | 949.0 | |
| 20260503070636 | 13 | 0.0 | 0.0 | 0.00 | 0.00 | 0.00 | 77 | 949.0 | |
| 20260503070335 | 13 | 0.0 | 0.0 | 0.00 | 0.00 | 0.00 | 77 | 949.0 | |
| 20260503060336 | 13 | 0.0 | 0.0 | 0.00 | 0.00 | 0.00 | 78 | 949.0 | |
| 20260503054536 | 12 | 0.0 | 0.0 | 0.00 | 0.00 | 0.00 | 80 | 949.0 | |
| 20260503053935 | 12 | 0.0 | 0.0 | 0.00 | 0.00 | 0.00 | 80 | 949.0 | |
| 20260503053335 | 12 | 0.0 | 0.0 | 0.00 | 0.00 | 0.00 | 80 | 949.0 | |
| 20260503052736 | 12 | 0.0 | 0.0 | 0.00 | 0.00 | 0.00 | 80 | 949.0 | |
| 20260503052436 | 12 | 0.0 | 0.0 | 0.00 | 0.00 | 0.00 | 78 | 949.0 | |
| 20260503052136 | 12 | 0.0 | 0.0 | 0.00 | 0.00 | 0.00 | 78 | 949.0 | |
| 20260503051836 | 12 | 0.0 | 0.0 | 0.00 | 0.00 | 0.00 | 77 | 949.0 | |
| 20260503051536 | 12 | 0.0 | 0.0 | 0.00 | 0.00 | 0.00 | 77 | 949.0 | |
| 20260503051235 | 12 | 0.0 | 0.0 | 0.00 | 0.00 | 0.00 | 77 | 949.0 | |
| 20260503050936 | 13 | 0.0 | 0.0 | 0.00 | 0.00 | 0.00 | 76 | 949.1 | |
| 20260503050036 | 13 | 0.0 | 0.0 | 0.00 | 0.00 | 0.00 | 76 | 949.1 | |
| 20260503045736 | 13 | 0.0 | 0.0 | 0.00 | 0.00 | 0.00 | 76 | 949.0 | |
| 20260503045135 | 13 | 0.0 | 0.0 | 0.00 | 0.00 | 0.00 | 76 | 949.0 | |
| 20260503044836 | 13 | 0.0 | 0.0 | 0.00 | 0.00 | 0.00 | 76 | 949.0 | |
| 20260503044535 | 13 | 0.0 | 0.0 | 0.00 | 0.00 | 0.00 | 76 | 949.0 | |
| 20260503044236 | 13 | 0.0 | 0.0 | 0.00 | 0.00 | 0.00 | 76 | 949.0 | |
| 20260503043936 | 13 | 0.0 | 0.0 | 0.00 | 0.00 | 0.00 | 76 | 949.0 | |
| 20260503043636 | 13 | 0.0 | 0.0 | 0.00 | 0.00 | 0.00 | 76 | 949.0 | |
| 20260503043336 | 13 | 0.0 | 0.0 | 0.00 | 0.00 | 0.00 | 76 | 949.0 | |
| 20260503043036 | 13 | 0.0 | 0.0 | 0.00 | 0.00 | 0.00 | 76 | 949.0 | |
| 20260503042735 | 13 | 0.0 | 0.0 | 0.00 | 0.00 | 0.00 | 76 | 949.0 | |
| 20260503042435 | 13 | 0.0 | 0.0 | 0.00 | 0.00 | 0.00 | 75 | 949.4 | |
| 20260503042135 | 13 | 0.0 | 0.0 | 0.00 | 0.00 | 0.00 | 75 | 949.4 | |
| 20260503041836 | 13 | 0.0 | 0.0 | 0.00 | 0.00 | 0.00 | 75 | 949.4 | |
| 20260503041536 | 13 | 0.0 | 0.0 | 0.00 | 0.00 | 0.00 | 75 | 949.4 | |
| 20260503041236 | 13 | 0.0 | 0.0 | 0.00 | 0.00 | 0.00 | 75 | 949.4 | |
| 20260503040936 | 13 | 0.0 | 0.0 | 0.00 | 0.00 | 0.00 | 75 | 949.4 | |
| 20260503040636 | 13 | 0.0 | 0.0 | 0.00 | 0.00 | 0.00 | 75 | 949.4 | |
| 20260503040336 | 13 | 0.0 | 0.0 | 0.00 | 0.00 | 0.00 | 77 | 949.0 | |
| 20260503035736 | 13 | 0.0 | 0.0 | 0.00 | 0.00 | 0.00 | 77 | 949.0 | |
| 20260503035436 | 13 | 0.0 | 0.0 | 0.00 | 0.00 | 0.00 | 77 | 949.0 | |
| 20260503035136 | 13 | 0.0 | 0.0 | 0.00 | 0.00 | 0.00 | 77 | 949.0 | |
| 20260503034836 | 13 | 0.0 | 0.0 | 0.00 | 0.00 | 0.00 | 77 | 949.0 | |
| 20260503034536 | 13 | 0.0 | 0.0 | 0.00 | 0.00 | 0.00 | 77 | 949.0 | |
| 20260503033936 | 13 | 0.0 | 0.0 | 0.00 | 0.00 | 0.00 | 77 | 949.0 | |
| 20260503033636 | 13 | 0.0 | 0.0 | 0.00 | 0.00 | 0.00 | 77 | 949.0 | |
| 20260503033336 | 13 | 0.0 | 0.0 | 0.00 | 0.00 | 0.00 | 76 | 949.6 | |
| 20260503033036 | 13 | 0.0 | 0.0 | 0.00 | 0.00 | 0.00 | 76 | 949.6 | |
| 20260503032736 | 13 | 0.0 | 0.0 | 0.00 | 0.00 | 0.00 | 76 | 949.6 | |
| 20260503032436 | 13 | 0.0 | 0.0 | 0.00 | 0.00 | 0.00 | 76 | 949.6 | |
| 20260503032136 | 13 | 0.0 | 0.0 | 0.00 | 0.00 | 0.00 | 76 | 949.6 | |
| 20260503031836 | 13 | 0.0 | 0.0 | 0.00 | 0.00 | 0.00 | 76 | 949.6 | |
| 20260503031536 | 13 | 0.0 | 0.0 | 0.00 | 0.00 | 0.00 | 76 | 949.6 | |
| 20260503031235 | 13 | 0.0 | 0.0 | 0.00 | 0.00 | 0.00 | 76 | 949.6 | |
| 20260503030936 | 13 | 0.0 | 0.0 | 0.00 | 0.00 | 0.00 | 76 | 949.0 | |
| 20260503030644 | 13 | 0.0 | 0.0 | 0.00 | 0.00 | 0.00 | 76 | 949.0 | |
| 20260503030336 | 13 | 0.0 | 0.0 | 0.00 | 0.00 | 0.00 | 76 | 949.0 | |
| 20260503030036 | 13 | 0.0 | 0.0 | 0.00 | 0.00 | 0.00 | 76 | 949.0 | |
| 20260503025435 | 13 | 0.0 | 0.0 | 0.00 | 0.00 | 0.00 | 76 | 949.0 | |
| 20260503025135 | 13 | 0.0 | 0.0 | 0.00 | 0.00 | 0.00 | 76 | 949.0 | |
| 20260503024836 | 13 | 0.0 | 0.0 | 0.00 | 0.00 | 0.00 | 76 | 949.0 | |
| 20260503024536 | 13 | 0.0 | 0.0 | 0.00 | 0.00 | 0.00 | 76 | 949.0 | |
| 20260503024235 | 13 | 0.0 | 0.0 | 0.00 | 0.00 | 0.00 | 76 | 949.9 | |
| 20260503023936 | 13 | 0.0 | 0.0 | 0.00 | 0.00 | 0.00 | 76 | 949.9 | |
| 20260503023635 | 13 | 0.0 | 0.0 | 0.00 | 0.00 | 0.00 | 76 | 949.9 | |
| 20260503023036 | 13 | 0.0 | 0.0 | 0.00 | 0.00 | 0.00 | 76 | 949.9 | |
| 20260503022736 | 13 | 0.0 | 0.0 | 0.00 | 0.00 | 0.00 | 76 | 949.9 | |
| 20260503022435 | 13 | 0.0 | 0.0 | 0.00 | 0.00 | 0.00 | 76 | 949.9 | |
| 20260503021836 | 13 | 0.0 | 0.0 | 0.00 | 0.00 | 0.00 | 76 | 949.9 | |
| 20260503021536 | 13 | 0.0 | 0.0 | 0.00 | 0.00 | 0.00 | 76 | 949.9 | |
| 20260503021235 | 13 | 0.0 | 0.0 | 0.00 | 0.00 | 0.00 | 75 | 949.0 | |
| 20260503020935 | 13 | 0.0 | 0.0 | 0.00 | 0.00 | 0.00 | 75 | 949.0 | |
| 20260503020635 | 13 | 0.0 | 0.0 | 0.00 | 0.00 | 0.00 | 75 | 949.0 | |
| 20260503020336 | 13 | 0.0 | 0.0 | 0.00 | 0.00 | 0.00 | 75 | 949.0 | |
| 20260503020036 | 14 | 0.0 | 0.0 | 0.00 | 0.00 | 0.00 | 75 | 950.1 | |
| 20260503015735 | 14 | 0.0 | 0.0 | 0.00 | 0.00 | 0.00 | 75 | 950.1 | |
| 20260503015436 | 14 | 0.0 | 0.0 | 0.00 | 0.00 | 0.00 | 75 | 950.1 | |
| 20260503015136 | 14 | 0.0 | 0.0 | 0.00 | 0.00 | 0.00 | 75 | 950.1 | |
| 20260503014836 | 14 | 0.0 | 0.0 | 0.00 | 0.00 | 0.00 | 75 | 950.1 | |
| 20260503014536 | 14 | 0.0 | 0.0 | 0.00 | 0.00 | 0.00 | 75 | 950.1 | |
| 20260503014236 | 14 | 0.0 | 0.0 | 0.00 | 0.00 | 0.00 | 75 | 950.1 | |
| 20260503013635 | 14 | 0.0 | 0.0 | 0.00 | 0.00 | 0.00 | 75 | 950.1 | |
| 20260503013335 | 14 | 0.0 | 0.0 | 0.00 | 0.00 | 0.00 | 75 | 950.1 | |
| 20260503013036 | 14 | 0.0 | 0.0 | 0.00 | 0.00 | 0.00 | 75 | 950.1 | |
| 20260503012736 | 14 | 0.0 | 0.0 | 0.00 | 0.00 | 0.00 | 75 | 950.1 | |
| 20260503012436 | 14 | 0.0 | 0.0 | 0.00 | 0.00 | 0.00 | 75 | 950.1 | |
| 20260503012136 | 14 | 0.0 | 0.0 | 0.00 | 0.00 | 0.00 | 75 | 950.1 | |
| 20260503011836 | 14 | 0.0 | 0.0 | 0.00 | 0.00 | 0.00 | 75 | 950.1 | |
| 20260503011536 | 14 | 0.0 | 0.0 | 0.00 | 0.00 | 0.00 | 75 | 950.0 | |
| 20260503010936 | 14 | 0.0 | 0.0 | 0.00 | 0.00 | 0.00 | 75 | 950.0 | |
| 20260503010636 | 14 | 0.0 | 0.0 | 0.00 | 0.00 | 0.00 | 75 | 950.0 | |
| 20260503010336 | 14 | 0.0 | 0.0 | 0.00 | 0.00 | 0.00 | 75 | 950.0 | |
| 20260503010036 | 14 | 0.0 | 0.0 | 0.00 | 0.00 | 0.00 | 75 | 950.0 | |
| 20260503005735 | 14 | 0.0 | 0.0 | 0.00 | 0.00 | 0.00 | 75 | 950.0 | |
| 20260503005435 | 14 | 0.0 | 0.0 | 0.00 | 0.00 | 0.00 | 75 | 950.0 | |
| 20260503005136 | 13 | 0.0 | 0.0 | 0.00 | 0.00 | 0.00 | 76 | 950.6 | |
| 20260503004835 | 13 | 0.0 | 0.0 | 0.00 | 0.00 | 0.00 | 76 | 950.6 | |
| 20260503004536 | 13 | 0.0 | 0.0 | 0.00 | 0.00 | 0.00 | 76 | 950.6 | |
| 20260503003936 | 13 | 0.0 | 0.0 | 0.00 | 0.00 | 0.00 | 76 | 950.6 | |
| 20260503003635 | 13 | 0.0 | 0.0 | 0.00 | 0.00 | 0.00 | 76 | 950.6 | |
| 20260503003036 | 13 | 0.0 | 0.0 | 0.00 | 0.00 | 0.00 | 76 | 950.6 | |
| 20260503002736 | 13 | 0.0 | 0.0 | 0.00 | 0.00 | 0.00 | 76 | 950.6 | |
| 20260503002435 | 13 | 0.0 | 0.0 | 0.00 | 0.00 | 0.00 | 76 | 950.0 | |
| 20260503001836 | 13 | 0.0 | 0.0 | 0.00 | 0.00 | 0.00 | 76 | 950.0 | |
| 20260503001536 | 14 | 0.0 | 0.0 | 0.00 | 0.00 | 0.00 | 74 | 950.8 | |
| 20260503001236 | 14 | 0.0 | 0.0 | 0.00 | 0.00 | 0.00 | 74 | 950.8 | |
| 20260503000935 | 14 | 0.0 | 0.0 | 0.00 | 0.00 | 0.00 | 74 | 950.8 | |
| 20260503000635 | 14 | 0.0 | 0.0 | 0.00 | 0.00 | 0.00 | 74 | 950.8 | |
| 20260503000036 | 14 | 0.0 | 0.0 | 0.00 | 0.00 | 0.00 | 74 | 950.8 | |
| 20260502235736 | 14 | 0.0 | 0.0 | 0.00 | 0.00 | 0.00 | 74 | 950.8 | |
| 20260502235436 | 14 | 0.0 | 0.0 | 0.00 | 0.00 | 0.00 | 74 | 950.8 | |
| 20260502235135 | 14 | 0.0 | 0.0 | 0.00 | 0.00 | 0.00 | 74 | 950.8 | |
| 20260502234836 | 14 | 0.0 | 0.0 | 0.00 | 0.00 | 0.00 | 74 | 950.8 | |
| 20260502234536 | 14 | 0.0 | 0.0 | 0.00 | 0.00 | 0.00 | 74 | 950.8 | |
| 20260502234236 | 14 | 0.0 | 0.0 | 0.00 | 0.00 | 0.00 | 74 | 950.8 | |
| 20260502233336 | 14 | 0.0 | 0.0 | 0.00 | 0.00 | 0.00 | 73 | 950.0 | |
| 20260502233036 | 14 | 0.0 | 0.0 | 0.00 | 0.00 | 0.00 | 73 | 950.0 | |
| 20260502232736 | 14 | 0.0 | 0.0 | 0.00 | 0.00 | 0.00 | 73 | 950.0 | |
| 20260502232436 | 14 | 0.0 | 0.0 | 0.00 | 0.00 | 0.00 | 73 | 950.0 |